Vertical_Velocity
-1 -2 -1 -1 -0 -0 -1 -0 -0 1 -0 -2 1 -2 -1 -2 -1 1 -1 -3 1 -2 -2 -5 -1 -1 0 1 1 0 -1 -0 0 -0 -0 0 0 1 1 0 1 -0 -0 -1 0 0 -4
-0 -1 -2 -2 -2 -1 -1 0 -1 -2 0 2 3 1 -1 1 -0 -0 0 -3 -4 1 -2 -0 -3 -2 -1 1 1 -0 -1 0 1 0 -0 0 -0 1 1 -0 1 0 -1 -1 -2 -2 -1
-1 -1 1 -1 -0 -0 -0 -1 0 -1 -0 -1 -1 2 -0 0 0 -0 0 0 -0 -4 -2 -1 -1 -3 -1 -1 1 -1 0 1 1 0 0 0 -0 0 0 0 -1 -2 -1 -1 -1 -1 -1
-1 0 1 -1 -1 -0 -1 -1 -2 -0 -2 -2 -2 -1 -1 0 1 -0 -1 -1 1 -0 -2 -0 0 -2 -3 -1 -0 -1 -0 0 0 1 0 -0 0 0 0 -2 -1 -1 0 2 1 -0 -1
-1 -1 -1 -0 -1 -1 -0 -1 -1 -2 -0 1 -1 -2 -0 -2 -2 -2 -1 -2 -2 -0 -4 -5 -2 1 -3 -2 -1 -1 0 0 -0 1 -0 -0 0 0 0 0 0 -0 3 1 -2 0 0
-2 -1 -0 -2 -1 -1 -1 -1 -2 -0 -2 -1 -1 -1 -1 -2 -3 -1 -2 1 -1 0 1 -1 -4 0 -2 -2 -2 -2 -1 1 -1 0 0 0 -0 1 -1 1 3 -1 -0 -1 -0 -4 -0
-1 -3 -0 -1 -1 -1 -1 -1 -1 -1 1 -0 -0 -2 -1 -1 -1 -3 -0 -1 -1 0 -1 -1 -1 -3 -1 -1 -0 -2 -3 -1 0 1 -0 0 -0 -1 -1 -2 -3 -3 -2 -2 -2 -5 -3
1 0 -3 -1 1 -1 -1 -0 1 -2 -3 -2 -1 -1 -2 -2 -1 -0 -2 1 4 2 0 0 -2 -1 -2 -1 -0 -2 -2 -2 -1 0 -1 -1 -2 -2 -1 -1 -1 -2 -3 -2 -2 -1 -3
0 0 1 -1 -1 1 -1 -2 -1 1 -1 -3 -1 -1 -1 -1 -4 -3 -1 -2 1 2 2 -0 0 0 0 -2 -1 -1 -2 -2 -1 -1 -1 0 -1 -1 -3 -4 -3 -2 -1 0 1 1 -0
-1 -0 -2 -1 1 -1 -1 0 -1 1 -0 0 -2 -1 -1 -0 1 -3 -3 -3 -1 -2 0 1 -3 -2 -1 1 -1 -1 0 -0 -2 -2 -1 -2 -1 -1 -2 -2 -0 0 -2 -1 -1 -3 5
-2 1 -2 -0 -2 -1 -2 -0 -3 -1 -0 -1 -4 -0 -2 0 -1 3 1 0 -5 -1 3 -2 1 1 -1 -0 -2 -2 -2 1 0 -1 -1 -3 -1 -3 -2 -1 -0 -2 -1 1 2 2 -1
2 -1 1 -2 -1 -1 2 1 0 -4 -1 1 1 0 -0 -3 -0 -1 -0 -3 -2 0 -2 -1 2 -2 -1 1 0 0 -1 0 -1 1 0 1 -1 -2 -2 -2 -1 -1 -1 -0 -1 -1 3
5 3 -5 1 -2 -7 0 1 0 0 3 -3 -2 1 0 -1 -1 1 -1 1 -4 1 -2 -1 -1 0 1 -1 2 -0 0 -1 -2 -2 0 1 -0 0 -0 -1 -2 -2 -1 3 6 5 3
-4 1 7 4 -1 -1 -3 -2 -3 1 0 -1 4 -2 -0 5 -1 0 -0 0 -1 -2 0 0 -2 -0 -2 1 -2 -0 -1 0 -0 1 -1 -1 2 2 -0 -1 -2 -1 -2 3 0 1 3
-4 12 -2 2 10 -2 2 -1 -5 1 2 -1 -2 -1 -0 -1 -1 5 1 -3 -1 1 -1 -0 0 -1 -1 -1 -0 1 -0 1 -0 -1 -1 -1 -2 -0 -1 1 1 -1 -2 -3 -0 -3 3
-5 -5 -1 15 -11 10 1 -2 1 -1 1 0 0 -3 2 -3 -1 1 3 -3 -2 -0 2 2 -0 -0 0 -0 -1 0 -1 -2 -0 -1 1 -0 -1 0 -1 -1 -1 -0 -1 -1 -3 1 -1
1 5 -1 -0 -2 -5 6 5 2 1 -1 -2 2 2 -2 0 -2 3 0 2 -1 -3 0 1 -1 1 -1 1 0 -1 -1 -1 0 -0 -0 1 3 -0 2 -3 1 0 -1 -1 -2 -4 1
2 5 1 10 2 -4 -7 -1 2 -1 3 4 -1 4 -4 1 -2 -0 -1 4 -0 1 2 -5 -4 3 0 1 0 3 -2 -1 -1 0 -3 -1 1 1 -3 1 1 0 -2 0 -0 -1 -0
-6 3 1 -2 2 14 0 -8 8 4 4 2 0 2 -0 3 -2 -1 -1 -3 4 3 5 -3 -1 -1 2 1 1 1 1 -1 2 0 -0 -2 2 -1 0 0 -1 -3 -2 -1 2 1 -5
7 -5 3 2 -2 -0 15 -2 5 6 -1 2 -0 2 1 -8 1 -1 4 -3 0 1 0 1 -4 1 4 -1 2 1 -2 0 1 2 0 3 -1 -4 -2 1 -1 -5 -3 2 6 -1 -0
-1 -0 -2 1 11 3 -1 1 4 3 0 5 2 -6 -1 -11 -5 -0 3 -3 2 0 -3 -0 -2 1 -1 3 2 -3 -0 2 -0 -2 2 -0 -2 0 1 -0 1 -1 -0 2 -8 4 -9
2 -4 1 -5 4 0 10 8 -1 22 1 2 -1 4 -4 0 -3 -1 3 -8 1 5 7 -5 -6 5 -1 -2 6 1 5 3 5 0 4 -2 -2 0 -2 -1 1 -4 -0 3 0 1 -15
-5 4 -1 -2 -3 4 0 7 3 4 6 10 6 -7 7 0 -1 3 1 4 2 3 -2 2 2 -2 -1 -1 3 3 3 2 2 2 4 3 2 1 -2 1 4 -3 -16 -1 10 -0 16
-4 -0 -1 -1 -1 3 3 2 5 3 1 13 6 1 2 -2 -1 2 -1 1 1 -2 -1 2 -0 1 -1 1 6 4 2 3 2 2 3 -1 4 5 0 -0 3 -9 -3 1 -3 -1 -5
2 -6 3 -5 1 -2 0 3 -4 2 6 2 -0 4 5 -5 3 -0 1 -1 5 4 -3 -1 -0 -3 -1 2 4 4 -2 4 -5 1 2 3 5 0 -0 -1 -10 -16 -7 -2 5 -15 5
6 -12 3 -1 -1 -9 2 4 1 4 2 -2 -1 4 2 0 -4 -2 -2 -1 2 3 1 1 5 -0 -0 1 3 1 -3 2 1 -2 2 2 3 4 2 2 -1 -6 1 -1 3 -22 -4
-0 -3 -0 -1 2 -7 -2 6 -1 1 1 3 6 -2 2 4 1 4 -1 -0 -1 2 0 3 0 -4 3 1 4 0 -3 0 -3 -0 -3 2 1 -7 6 -1 -11 -6 2 3 5 -15 -2
-2 2 -3 1 -2 -2 -4 4 -1 2 -2 2 2 -3 3 -1 2 1 2 2 2 -1 5 2 5 -2 -1 -2 0 -7 4 -1 1 -3 -1 4 2 -5 4 1 -14 -1 0 3 1 -3 1
2 -0 -4 -2 -1 -7 -3 -4 -1 5 21 12 -1 4 2 3 -1 3 2 2 3 -4 1 5 -3 -2 7 1 -1 -1 -3 1 1 -4 -2 -8 -4 4 -2 -3 2 -4 2 -1 1 2 2
Height
3148 3147 3146 3145 3144 3143 3142 3142 3141 3140 3139 3136 3135 3133 3132 3131 3129 3127 3125 3122 3119 3117 3116 3114 3113 3112 3112 3112 3112 3110 3109 3109 3109 3110 3110 3111 3113 3113 3114 3116 3117 3118 3119 3120 3121 3122 3122
3147 3146 3146 3145 3144 3143 3143 3142 3141 3140 3139 3137 3135 3132 3131 3129 3127 3126 3124 3122 3119 3117 3115 3113 3112 3111 3111 3112 3109 3108 3108 3108 3108 3108 3109 3110 3111 3112 3113 3113 3115 3115 3116 3117 3118 3119 3120
3145 3145 3145 3144 3143 3143 3142 3141 3140 3140 3138 3137 3135 3133 3130 3128 3126 3124 3123 3121 3120 3116 3114 3112 3111 3109 3109 3111 3108 3108 3108 3108 3108 3108 3108 3108 3109 3111 3111 3112 3112 3112 3115 3115 3115 3116 3117
3143 3143 3143 3143 3142 3141 3140 3140 3139 3138 3137 3136 3134 3132 3130 3127 3125 3122 3121 3119 3118 3116 3112 3111 3110 3109 3108 3108 3107 3107 3108 3109 3108 3108 3107 3107 3108 3109 3109 3110 3110 3112 3114 3115 3113 3113 3112
3140 3141 3141 3141 3140 3139 3138 3138 3137 3136 3135 3135 3133 3131 3130 3128 3125 3121 3119 3117 3116 3115 3113 3111 3110 3109 3108 3108 3108 3107 3107 3107 3107 3107 3106 3106 3107 3108 3109 3109 3111 3110 3112 3111 3111 3111 3111
3138 3138 3138 3138 3138 3138 3137 3136 3135 3134 3133 3132 3132 3130 3128 3126 3124 3121 3118 3116 3114 3112 3111 3110 3109 3111 3109 3108 3107 3106 3106 3106 3106 3106 3106 3106 3106 3106 3107 3108 3109 3107 3108 3109 3109 3110 3108
3136 3136 3136 3136 3136 3136 3135 3133 3133 3132 3131 3130 3129 3127 3126 3124 3122 3120 3117 3115 3115 3112 3109 3107 3107 3106 3107 3107 3106 3105 3105 3105 3105 3105 3105 3105 3105 3104 3104 3105 3106 3106 3106 3106 3105 3104 3104
3133 3133 3133 3133 3133 3133 3132 3131 3130 3129 3128 3127 3126 3125 3124 3122 3120 3117 3115 3112 3111 3111 3106 3104 3103 3103 3104 3104 3104 3103 3104 3105 3104 3104 3103 3105 3103 3103 3103 3104 3103 3103 3102 3101 3100 3097 3096
3129 3130 3129 3129 3129 3129 3129 3128 3128 3127 3126 3125 3124 3122 3121 3119 3117 3115 3113 3111 3108 3106 3104 3101 3100 3101 3103 3103 3102 3102 3102 3102 3102 3102 3102 3102 3103 3101 3101 3100 3099 3098 3098 3097 3097 3094 3091
3125 3126 3126 3126 3126 3126 3125 3125 3124 3123 3122 3121 3120 3119 3118 3117 3117 3112 3110 3108 3107 3104 3101 3099 3097 3099 3100 3100 3100 3099 3099 3102 3100 3100 3100 3100 3100 3099 3098 3098 3097 3097 3096 3094 3092 3092 3093
3120 3121 3121 3122 3122 3122 3122 3121 3120 3120 3120 3118 3117 3116 3115 3113 3112 3110 3108 3106 3105 3103 3102 3097 3094 3095 3096 3099 3098 3096 3096 3096 3096 3097 3098 3097 3095 3095 3096 3096 3095 3095 3092 3090 3088 3088 3087
3115 3116 3116 3116 3116 3116 3115 3116 3116 3116 3115 3114 3113 3112 3111 3110 3109 3106 3104 3103 3103 3105 3096 3093 3091 3091 3094 3094 3093 3092 3093 3093 3093 3092 3092 3092 3091 3092 3092 3092 3092 3091 3090 3088 3086 3086 3085
3109 3110 3111 3111 3111 3111 3111 3111 3111 3110 3110 3109 3109 3108 3107 3106 3105 3103 3101 3100 3102 3097 3094 3091 3090 3090 3090 3090 3089 3088 3088 3088 3089 3090 3089 3089 3088 3087 3088 3089 3089 3089 3089 3088 3084 3083 3077
3103 3104 3105 3105 3106 3106 3106 3106 3105 3105 3105 3104 3103 3102 3102 3101 3099 3098 3097 3099 3096 3090 3088 3087 3087 3087 3087 3086 3086 3084 3084 3083 3083 3084 3084 3084 3085 3083 3083 3084 3085 3084 3087 3086 3078 3073 3074
3096 3097 3099 3100 3100 3100 3100 3100 3100 3100 3099 3099 3098 3097 3097 3095 3094 3093 3093 3093 3090 3087 3086 3084 3084 3082 3081 3081 3083 3081 3080 3078 3077 3078 3081 3079 3079 3078 3079 3079 3082 3080 3082 3082 3080 3078 3077
3087 3090 3092 3092 3094 3094 3094 3095 3094 3094 3093 3093 3093 3092 3092 3091 3089 3088 3087 3084 3084 3084 3083 3081 3082 3080 3077 3076 3078 3076 3074 3072 3071 3073 3073 3073 3074 3074 3074 3076 3076 3076 3077 3077 3078 3076 3067
3079 3082 3084 3085 3088 3089 3089 3089 3089 3090 3088 3087 3087 3086 3086 3085 3084 3082 3079 3076 3076 3076 3078 3078 3074 3073 3073 3072 3072 3072 3069 3067 3066 3067 3069 3070 3071 3071 3070 3068 3068 3069 3069 3070 3071 3071 3065
3071 3072 3076 3078 3080 3082 3083 3082 3082 3083 3084 3081 3081 3080 3079 3078 3079 3076 3074 3071 3070 3068 3067 3068 3068 3067 3066 3067 3065 3065 3063 3062 3061 3062 3063 3065 3064 3064 3064 3062 3062 3062 3061 3063 3063 3063 3061
3062 3064 3068 3071 3073 3074 3075 3076 3076 3077 3077 3076 3074 3073 3073 3073 3070 3069 3067 3066 3063 3061 3060 3058 3060 3059 3060 3060 3062 3056 3055 3056 3056 3058 3057 3058 3057 3060 3059 3060 3056 3054 3052 3053 3054 3054 3051
3054 3057 3060 3063 3065 3067 3067 3069 3070 3070 3070 3070 3069 3067 3066 3065 3062 3061 3059 3057 3056 3054 3053 3052 3051 3053 3053 3055 3053 3050 3049 3050 3050 3051 3051 3052 3051 3049 3046 3044 3046 3046 3045 3045 3047 3046 3038
3046 3049 3052 3057 3058 3059 3061 3062 3063 3064 3064 3063 3062 3060 3059 3057 3056 3054 3052 3049 3048 3047 3046 3046 3043 3044 3048 3048 3047 3045 3044 3044 3044 3044 3044 3046 3043 3042 3040 3040 3039 3038 3038 3036 3032 3032 3029
3041 3042 3045 3048 3050 3052 3053 3054 3056 3055 3057 3056 3053 3054 3051 3049 3049 3048 3045 3039 3040 3040 3037 3035 3035 3038 3039 3040 3041 3040 3039 3038 3038 3037 3038 3037 3035 3034 3033 3033 3031 3028 3030 3025 3023 3023 3016
3037 3037 3037 3038 3042 3043 3045 3046 3048 3048 3049 3047 3045 3043 3044 3040 3040 3042 3037 3033 3031 3031 3029 3027 3028 3030 3030 3033 3033 3033 3033 3033 3032 3032 3032 3032 3031 3029 3026 3026 3023 3019 3015 3012 3008 3007 3007
3034 3033 3031 3030 3031 3032 3035 3037 3039 3039 3040 3039 3038 3036 3036 3032 3032 3033 3030 3028 3024 3023 3021 3019 3020 3021 3024 3025 3026 3026 3026 3026 3025 3025 3026 3024 3025 3027 3022 3023 3016 3004 3003 3002 2999 2999 2998
3029 3027 3026 3023 3023 3023 3025 3027 3029 3032 3031 3031 3030 3029 3027 3023 3024 3023 3022 3020 3017 3014 3013 3012 3012 3014 3016 3019 3020 3019 3019 3019 3017 3016 3017 3018 3019 3020 3020 3013 2999 3000 2997 2995 2993 2991 2991
3023 3021 3020 3018 3017 3016 3018 3018 3020 3022 3022 3023 3022 3019 3018 3017 3014 3013 3011 3010 3009 3007 3006 3005 3005 3006 3008 3012 3013 3011 3010 3009 3008 3008 3008 3011 3012 3016 3012 3009 2996 2992 2991 2989 2987 2983 2983
3018 3016 3015 3012 3010 3009 3011 3010 3011 3013 3013 3015 3014 3012 3009 3006 3006 3003 3001 3000 3000 2999 2998 2997 2998 2999 3002 3003 3005 3004 3003 3002 3002 3001 3002 3002 3003 3003 3004 3001 2988 2987 2985 2984 2985 2982 2976
3013 3011 3009 3007 3004 3003 3004 3004 3004 3004 3005 3007 3005 3003 3001 2997 2996 2996 2993 2992 2991 2990 2992 2992 2993 2991 2994 2996 2998 2997 2994 2995 2994 2994 2993 2994 2994 2993 2996 2997 2986 2980 2979 2980 2976 2972 2972
3007 3005 3003 3001 2998 2996 2996 2996 2998 2998 2998 2997 2996 2994 2991 2990 2988 2986 2984 2983 2983 2982 2986 2985 2985 2987 2987 2988 2989 2988 2988 2987 2987 2987 2987 2988 2988 2985 2986 2979 2975 2974 2973 2970 2969 2968 2967